DW3560 Weather Reports


time (UTC)temp
F
wind
direction
speed
knots
gust
knots
rain 1hr
in
rain 24hr
in
rain mn
in
humidity
%
barometer
mb
20260906000524 70 320 2.6 9.6 0.00 0.00 0.00 59 1014.8
20260906000003 70 310 2.6 10.4 0.00 0.00 0.00 56 1014.8
20260905235503 71 325 2.6 13.0 0.00 0.00 0.00 56 1014.8
20260905235003 71 324 2.6 13.0 0.00 0.00 0.00 53 1014.8
20260905234503 71 324 2.6 11.3 0.00 0.00 0.00 52 1014.8
20260905234024 72 325 3.5 11.3 0.00 0.00 0.00 53 1014.8
20260905233503 72 325 3.5 12.2 0.00 0.00 0.00 49 1014.8
20260905233003 72 327 2.6 12.2 0.00 0.00 0.00 50 1014.8
20260905232524 72 329 2.6 9.6 0.00 0.00 0.00 50 1014.8
20260905232024 72 330 2.6 11.3 0.00 0.00 0.00 49 1014.8
20260905231503 73 323 2.6 11.3 0.00 0.00 0.00 49 1014.8
20260905231003 73 332 3.5 10.4 0.00 0.00 0.00 51 1014.8
20260905230503 73 328 2.6 10.4 0.00 0.00 0.00 51 1014.8
20260905230003 73 299 1.7 7.0 0.00 0.00 0.00 50 1014.8
20260905225524 73 274 2.6 7.8 0.00 0.00 0.00 51 1014.8
20260905225024 73 266 2.6 9.6 0.00 0.00 0.00 51 1014.8
20260905224503 73 292 2.6 9.6 0.00 0.00 0.00 50 1014.8
20260905224003 74 322 2.6 7.0 0.00 0.00 0.00 50 1014.8
20260905223503 74 321 2.6 7.0 0.00 0.00 0.00 50 1014.8
20260905223003 74 326 2.6 12.2 0.00 0.00 0.00 48 1014.8
20260905222503 75 328 2.6 12.2 0.00 0.00 0.00 48 1014.8
20260905222003 75 315 2.6 7.8 0.00 0.00 0.00 48 1014.8
20260905221503 75 310 2.6 8.7 0.00 0.00 0.00 46 1014.8
20260905221003 75 311 2.6 8.7 0.00 0.00 0.00 46 1014.8
20260905220503 75 333 1.7 8.7 0.00 0.00 0.00 46 1014.8
20260905220003 75 336 2.6 9.6 0.00 0.00 0.00 47 1014.8
20260905215503 75 322 2.6 9.6 0.00 0.00 0.00 46 1014.8
20260905215024 75 296 2.6 8.7 0.00 0.00 0.00 48 1014.8
20260905214503 75 278 2.6 10.4 0.00 0.00 0.00 46 1014.8
20260905214003 75 302 2.6 7.0 0.00 0.00 0.00 44 1014.4
20260905213524 75 313 2.6 7.0 0.00 0.00 0.00 44 1014.4
20260905213003 75 278 1.7 7.8 0.00 0.00 0.00 46 1014.4
20260905212503 75 275 2.6 7.8 0.00 0.00 0.00 46 1014.4
20260905212024 75 271 2.6 7.8 0.00 0.00 0.00 45 1014.4
20260905211524 76 267 2.6 7.0 0.00 0.00 0.00 43 1014.4
20260905211003 76 276 1.7 7.0 0.00 0.00 0.00 41 1014.4
20260905210503 76 274 1.7 7.0 0.00 0.00 0.00 41 1014.4
20260905210003 76 287 1.7 7.0 0.00 0.00 0.00 41 1014.4
20260905205503 75 289 2.6 6.1 0.00 0.00 0.00 42 1014.4
20260905205003 74 259 2.6 9.6 0.00 0.00 0.00 41 1014.4
20260905204503 74 261 1.7 9.6 0.00 0.00 0.00 41 1014.4
20260905204003 75 302 1.7 7.8 0.00 0.00 0.00 41 1014.4
20260905203503 75 321 1.7 7.0 0.00 0.00 0.00 44 1014.4
20260905203003 74 318 1.7 5.2 0.00 0.00 0.00 45 1014.4
20260905202503 74 300 1.7 5.2 0.00 0.00 0.00 46 1014.4
20260905202003 74 267 1.7 7.8 0.00 0.00 0.00 47 1014.4
20260905201503 74 270 2.6 7.8 0.00 0.00 0.00 47 1014.4
20260905201003 74 265 1.7 7.0 0.00 0.00 0.00 48 1014.4
20260905200503 73 271 1.7 5.2 0.00 0.00 0.00 46 1014.4
20260905200003 73 258 1.7 5.2 0.00 0.00 0.00 49 1014.4
20260905195503 73 237 2.6 7.0 0.00 0.00 0.00 50 1014.4
20260905195024 73 247 2.6 7.0 0.00 0.00 0.00 48 1014.4
20260905194503 73 260 1.7 6.1 0.00 0.00 0.00 50 1014.4
20260905194003 72 266 1.7 7.0 0.00 0.00 0.00 51 1014.4
20260905193503 72 261 1.7 7.0 0.00 0.00 0.00 50 1014.4
20260905193003 72 229 1.7 6.1 0.00 0.00 0.00 53 1014.4
20260905192503 71 225 1.7 7.0 0.00 0.00 0.00 53 1014.4
20260905192024 71 255 1.7 7.0 0.00 0.00 0.00 51 1014.4
20260905191503 71 250 1.7 6.1 0.00 0.00 0.00 54 1014.4
20260905191003 71 229 1.7 6.1 0.00 0.00 0.00 56 1014.4
20260905190503 71 227 1.7 7.0 0.00 0.00 0.00 57 1014.4
20260905190003 70 241 1.7 7.0 0.00 0.00 0.00 57 1014.4
20260905185503 70 249 1.7 3.5 0.00 0.00 0.00 60 1014.4
20260905185003 69 251 1.7 2.6 0.00 0.00 0.00 61 1014.4
20260905184503 69 235 1.7 4.3 0.00 0.00 0.00 64 1014.4
20260905184003 68 239 2.6 7.0 0.00 0.00 0.00 61 1014.4
20260905183503 68 244 2.6 7.0 0.00 0.00 0.00 62 1014.4
20260905183003 68 237 2.6 6.1 0.00 0.00 0.00 62 1014.4
20260905182503 68 235 1.7 6.1 0.00 0.00 0.00 61 1014.4
20260905182024 68 227 1.7 5.2 0.00 0.00 0.00 63 1014.4
20260905181524 67 230 1.7 4.3 0.00 0.00 0.00 63 1014.4
20260905181003 67 230 1.7 4.3 0.00 0.00 0.00 62 1014.4
20260905180503 67 230 1.7 4.3 0.00 0.00 0.00 65 1014.4
20260905180003 66 249 0.9 3.5 0.00 0.00 0.00 68 1014.4
20260905175503 66 244 1.7 4.3 0.00 0.00 0.00 68 1014.4
20260905175003 66 227 1.7 4.3 0.00 0.00 0.00 69 1014.4
20260905174503 66 205 1.7 6.1 0.00 0.00 0.00 69 1014.4
20260905174003 65 223 1.7 6.1 0.00 0.00 0.00 70 1014.4
20260905173503 65 231 1.7 5.2 0.00 0.00 0.00 71 1014.4
20260905173024 65 228 2.6 5.2 0.00 0.00 0.00 71 1014.4
20260905172503 65 230 1.7 5.2 0.00 0.00 0.00 72 1014.4
20260905172003 64 230 1.7 4.3 0.00 0.00 0.00 73 1014.4
20260905171503 64 237 0.9 4.3 0.00 0.00 0.00 73 1014.4
20260905171003 64 242 0.0 2.6 0.00 0.00 0.00 73 1014.4
20260905170503 64 0 0.0 0.0 0.00 0.00 0.00 74 1014.4
20260905170003 63 0 0.0 0.0 0.00 0.00 0.00 74 1014.4
20260905165503 63 0 0.0 0.0 0.00 0.00 0.00 75 1014.4
20260905165003 63 0 0.0 0.0 0.00 0.00 0.00 75 1014.4
20260905164503 62 0 0.0 0.0 0.00 0.00 0.00 76 1014.4
20260905164024 62 0 0.0 0.0 0.00 0.00 0.00 76 1014.4
20260905163503 62 0 0.0 0.0 0.00 0.00 0.00 77 1014.4
20260905163003 62 0 0.0 0.0 0.00 0.00 0.00 77 1014.4
20260905162503 61 0 0.0 0.0 0.00 0.00 0.00 78 1014.4
20260905162003 61 0 0.0 0.0 0.00 0.00 0.00 79 1014.4
20260905161503 61 0 0.0 0.0 0.00 0.00 0.00 81 1014.4
20260905161003 60 0 0.0 0.0 0.00 0.00 0.00 83 1014.4
20260905160503 60 0 0.0 0.0 0.00 0.00 0.00 86 1014.4
20260905160003 59 0 0.0 0.0 0.00 0.00 0.00 88 1014.4
20260905155503 59 0 0.0 0.0 0.00 0.00 0.00 89 1014.4
20260905155024 58 0 0.0 0.0 0.00 0.00 0.00 90 1014.4
20260905154503 58 0 0.0 0.0 0.00 0.00 0.00 91 1014.4
20260905154003 58 0 0.0 0.0 0.00 0.00 0.00 92 1014.4
20260905153503 57 0 0.0 0.0 0.00 0.00 0.00 92 1014.4
20260905153003 57 0 0.0 0.0 0.00 0.00 0.00 92 1014.4
20260905152503 57 0 0.0 0.0 0.00 0.00 0.00 92 1014.4
20260905152024 57 0 0.0 0.0 0.00 0.00 0.00 92 1014.4
20260905151503 56 0 0.0 0.0 0.00 0.00 0.00 93 1014.4
20260905151003 57 0 0.0 0.0 0.00 0.00 0.00 93 1014.4
20260905150503 56 0 0.0 0.0 0.00 0.00 0.00 93 1014.4
20260905150003 56 182 0.0 0.9 0.00 0.00 0.00 93 1014.4
20260905145524 56 182 0.0 0.9 0.00 0.00 0.00 93 1014.4
20260905145003 56 182 0.0 1.7 0.00 0.00 0.00 93 1014.4
20260905144503 56 182 0.0 1.7 0.00 0.00 0.00 93 1014.4
20260905144003 56 182 0.0 0.9 0.00 0.00 0.00 93 1014.3
20260905143503 55 182 0.0 1.7 0.00 0.00 0.00 93 1014.3
20260905143003 55 182 0.0 1.7 0.00 0.00 0.00 93 1014.3
20260905142503 55 182 0.0 0.9 0.00 0.00 0.00 93 1014.3
20260905142003 55 182 0.0 0.9 0.00 0.00 0.00 93 1014.3
20260905141503 55 182 0.0 0.9 0.00 0.00 0.00 93 1014.3
20260905141003 55 182 0.0 1.7 0.00 0.00 0.00 93 1014.3
20260905140503 55 182 0.9 2.6 0.00 0.00 0.00 93 1014.3
20260905140003 55 183 0.9 3.5 0.00 0.00 0.00 93 1014.3
20260905135503 55 184 0.9 3.5 0.00 0.00 0.00 93 1014.3
20260905135003 55 184 0.9 2.6 0.00 0.00 0.00 93 1014.3
20260905134503 55 184 0.9 2.6 0.00 0.00 0.00 93 1014.3
20260905134003 55 184 0.9 2.6 0.00 0.00 0.00 93 1014.3
20260905133503 55 185 0.9 3.5 0.00 0.00 0.00 93 1014.3
20260905133003 55 186 0.9 3.5 0.00 0.00 0.00 93 1014.3
20260905132503 56 185 0.9 3.5 0.00 0.00 0.00 93 1014.3
20260905132003 56 183 0.9 3.5 0.00 0.00 0.00 93 1014.3
20260905131503 56 184 0.9 2.6 0.00 0.00 0.00 93 1014.3
20260905131003 56 183 0.9 2.6 0.00 0.00 0.00 93 1014.3
20260905130524 56 182 0.0 1.7 0.00 0.00 0.00 93 1014.3
20260905130024 56 182 0.0 3.5 0.00 0.00 0.00 93 1014.3
20260905125503 56 181 1.7 4.3 0.00 0.00 0.00 93 1014.3
20260905125003 56 181 1.7 4.3 0.00 0.00 0.00 93 1014.3
20260905124503 56 179 0.9 3.5 0.00 0.00 0.00 93 1014.3
20260905124024 56 177 0.9 3.5 0.00 0.00 0.00 93 1014.3
20260905123503 56 177 0.9 3.5 0.00 0.00 0.00 93 1014.3
20260905123004 56 176 0.9 3.5 0.00 0.00 0.00 93 1014.3
20260905122503 56 176 0.9 3.5 0.00 0.00 0.00 93 1014.3
20260905122003 56 176 0.9 3.5 0.00 0.00 0.00 93 1014.3
20260905121503 56 175 0.0 2.6 0.00 0.00 0.00 93 1014.3
20260905121003 56 175 0.9 2.6 0.00 0.00 0.00 93 1014.3
20260905120503 56 175 0.9 2.6 0.00 0.00 0.00 93 1014.3
20260905120024 56 176 0.9 2.6 0.00 0.00 0.00 93 1014.3
20260905115503 56 176 0.9 2.6 0.00 0.00 0.00 93 1014.3
20260905115003 56 177 0.9 2.6 0.00 0.00 0.00 93 1014.3
20260905114503 56 177 0.9 3.5 0.00 0.00 0.00 93 1014.3
20260905114024 56 177 0.9 3.5 0.00 0.00 0.00 93 1014.3
20260905113522 56 178 0.9 3.5 0.00 0.00 0.00 93 1014.3
20260905113001 56 180 0.9 3.5 0.00 0.00 0.00 93 1014.3
20260905112501 56 172 0.9 4.3 0.00 0.00 0.00 93 1014.3
20260905112001 56 179 1.7 4.3 0.00 0.00 0.00 93 1014.3
20260905111522 56 179 1.7 4.3 0.00 0.00 0.00 93 1014.3
20260905111002 56 159 0.9 4.3 0.00 0.00 0.00 93 1014.3
20260905110501 56 158 1.7 4.3 0.00 0.00 0.00 93 1014.3
20260905110002 56 157 1.7 5.2 0.00 0.00 0.00 93 1014.6
20260905105501 56 156 0.9 5.2 0.00 0.00 0.00 93 1014.6
20260905105001 56 156 0.0 2.6 0.00 0.00 0.00 93 1014.6
20260905104502 56 155 0.9 2.6 0.00 0.00 0.00 93 1014.6
20260905104001 56 155 0.9 2.6 0.00 0.00 0.00 93 1014.6
20260905103523 56 156 0.9 3.5 0.00 0.00 0.00 93 1014.6
20260905103001 56 158 0.9 4.3 0.00 0.00 0.00 93 1014.6
20260905102501 56 159 0.9 4.3 0.00 0.00 0.00 93 1014.6
20260905102002 56 159 0.9 3.5 0.00 0.00 0.00 92 1014.6
20260905101501 56 159 0.9 4.3 0.00 0.00 0.00 92 1014.6
20260905101001 56 160 0.9 4.3 0.00 0.00 0.00 92 1014.6
20260905100501 56 160 0.9 5.2 0.00 0.00 0.00 92 1014.6
20260905100023 56 160 0.9 5.2 0.00 0.00 0.00 93 1014.6
20260905095502 56 162 0.9 3.5 0.00 0.00 0.00 92 1014.6
20260905095002 56 163 1.7 4.3 0.00 0.00 0.00 92 1014.6
20260905094522 56 163 1.7 4.3 0.00 0.00 0.00 92 1014.6
20260905094001 56 155 0.9 5.2 0.00 0.00 0.00 92 1012.6
20260905093502 56 154 0.9 5.2 0.00 0.00 0.00 92 1012.6
20260905093002 56 172 1.7 4.3 0.00 0.00 0.00 92 1012.6
20260905092501 56 187 1.7 4.3 0.00 0.00 0.00 92 1012.6
20260905092001 56 195 1.7 5.2 0.00 0.00 0.00 92 1012.6
20260905091501 57 187 0.9 5.2 0.00 0.00 0.00 92 1012.6
20260905091001 56 161 0.9 5.2 0.00 0.00 0.00 92 1012.6
20260905090522 56 162 1.7 5.2 0.00 0.00 0.00 92 1012.6
20260905090002 56 159 0.9 5.2 0.00 0.00 0.00 91 1012.6
20260905085502 56 166 1.7 5.2 0.00 0.00 0.00 91 1012.6
20260905085001 56 179 0.9 4.3 0.00 0.00 0.00 91 1012.6
20260905084502 56 186 0.9 3.5 0.00 0.00 0.00 91 1012.6
20260905084001 56 169 0.9 4.3 0.00 0.00 0.00 91 1012.6
20260905083502 56 157 0.9 4.3 0.00 0.00 0.00 91 1012.6
20260905083002 56 155 0.9 4.3 0.00 0.00 0.00 91 1012.6
20260905082501 56 155 0.9 2.6 0.00 0.00 0.00 91 1012.6
20260905082002 56 156 0.9 2.6 0.00 0.00 0.00 91 1012.6
20260905081523 57 160 0.9 4.3 0.00 0.00 0.00 90 1012.6
20260905081002 57 163 1.7 4.3 0.00 0.00 0.00 90 1012.6
20260905080502 57 162 1.7 4.3 0.00 0.00 0.00 90 1012.6
20260905080002 57 157 0.9 2.6 0.00 0.00 0.00 90 1012.6
20260905075502 56 158 0.0 2.6 0.00 0.00 0.00 90 1012.6
20260905075001 56 159 0.9 3.5 0.00 0.00 0.00 90 1012.6
20260905074501 56 159 0.9 3.5 0.00 0.00 0.00 89 1012.6
20260905074022 56 159 0.9 3.5 0.00 0.00 0.00 89 1012.6
20260905073502 56 160 0.9 3.5 0.00 0.00 0.00 89 1012.6
20260905073002 56 161 0.9 3.5 0.00 0.01 0.00 88 1012.6
20260905072502 56 162 0.9 3.5 0.00 0.01 0.00 88 1012.6
20260905072002 56 163 0.9 4.3 0.00 0.01 0.00 88 1012.6
20260905071502 56 164 1.7 5.2 0.00 0.01 0.00 88 1012.6
20260905071001 56 165 0.9 5.2 0.00 0.01 0.00 87 1012.6
20260905070502 56 167 0.9 3.5 0.00 0.01 0.00 87 1012.6
20260905070009 56 167 0.9 3.5 0.00 0.01 0.00 87 1012.6
20260905065523 56 168 0.9 3.5 0.00 0.01 0.01 87 1012.6
20260905065001 56 169 0.9 3.5 0.00 0.01 0.01 87 1012.6
20260905064501 57 169 0.9 3.5 0.00 0.01 0.01 87 1012.6
20260905064002 57 169 0.9 3.5 0.00 0.01 0.01 86 1012.6
20260905063502 57 169 0.0 1.7 0.00 0.01 0.01 86 1012.6
20260905063002 57 169 0.9 3.5 0.00 0.01 0.01 86 1012.6
20260905062502 57 169 0.9 3.5 0.00 0.01 0.01 86 1012.6
20260905062002 57 169 0.9 3.5 0.00 0.02 0.01 85 1012.6
20260905061501 57 170 1.7 3.5 0.00 0.03 0.01 85 1012.6
20260905061002 57 170 1.7 4.3 0.00 0.03 0.01 85 1012.6
20260905060501 57 190 1.7 4.3 0.00 0.03 0.01 85 1012.6
20260905060002 57 227 1.7 2.6 0.00 0.04 0.01 84 1012.6
20260905055502 58 245 0.9 2.6 0.00 0.05 0.01 84 1012.6
20260905055002 58 247 0.0 1.7 0.00 0.06 0.01 84 1012.6
20260905054502 58 247 0.0 1.7 0.00 0.06 0.01 84 1012.6
20260905054002 58 247 0.9 1.7 0.00 0.07 0.01 84 1012.6
20260905053502 58 247 0.9 2.6 0.00 0.07 0.01 84 1012.6
20260905053002 58 246 0.9 2.6 0.00 0.08 0.01 84 1012.6
20260905052502 58 245 0.9 3.5 0.00 0.08 0.01 84 1012.6
20260905052002 58 243 0.9 3.5 0.00 0.09 0.01 83 1012.6
20260905051501 58 242 0.9 2.6 0.00 0.09 0.01 83 1012.6
20260905051002 58 242 0.0 2.6 0.00 0.09 0.01 83 1012.6
20260905050502 58 242 0.0 2.6 0.00 0.09 0.01 83 1012.6
20260905050002 58 242 0.9 2.6 0.00 0.09 0.01 83 1012.6
20260905045502 58 242 0.9 2.6 0.00 0.09 0.01 82 1012.6
20260905045001 58 242 0.9 2.6 0.00 0.10 0.01 82 1012.6
20260905044502 58 245 0.9 2.6 0.00 0.10 0.01 82 1012.6
20260905044002 58 251 1.7 3.5 0.00 0.10 0.01 82 1012.6
20260905043523 58 253 1.7 3.5 0.00 0.10 0.01 82 1012.6
20260905043001 59 252 0.9 3.5 0.00 0.10 0.01 81 1012.6
20260905042502 59 253 0.9 3.5 0.00 0.10 0.01 81 1012.6
20260905042002 59 252 0.9 3.5 0.00 0.10 0.01 81 1012.6
20260905041502 59 251 0.9 3.5 0.00 0.10 0.01 81 1012.6
20260905041023 59 249 0.9 3.5 0.00 0.10 0.01 80 1012.6
20260905040523 59 242 0.9 4.3 0.00 0.11 0.01 79 1012.6
20260905040002 59 250 1.7 4.3 0.00 0.11 0.01 79 1012.6
20260905035502 59 252 1.7 4.3 0.00 0.12 0.01 78 1012.6
20260905035002 59 248 0.9 4.3 0.00 0.12 0.01 78 1012.6
20260905034502 59 247 1.7 5.2 0.00 0.13 0.01 78 1012.6
20260905034002 60 248 1.7 5.2 0.00 0.14 0.01 78 1012.6
20260905033523 60 251 0.9 2.6 0.00 0.14 0.01 78 1012.6
20260905033002 60 253 0.9 3.5 0.00 0.14 0.01 77 1012.6
20260905032523 60 254 0.9 3.5 0.00 0.14 0.01 76 1012.6
20260905032002 60 262 0.0 2.6 0.00 0.14 0.01 76 1012.6
20260905031502 60 265 0.9 3.5 0.00 0.14 0.01 75 1012.6
20260905031002 60 279 0.0 3.5 0.00 0.14 0.01 75 1012.6
20260905030502 61 315 0.0 1.7 0.00 0.14 0.01 74 1012.6
20260905030002 61 314 0.9 2.6 0.00 0.14 0.01 74 1012.6
20260905025523 61 314 0.9 2.6 0.00 0.14 0.01 74 1012.6
20260905025002 61 307 0.9 3.5 0.00 0.14 0.01 73 1012.6
20260905024502 62 303 0.9 3.5 0.00 0.14 0.01 73 1012.6
20260905024002 62 307 0.9 3.5 0.00 0.14 0.01 72 1012.6
20260905023502 62 310 0.9 3.5 0.00 0.14 0.01 72 1012.6
20260905023003 62 307 0.9 3.5 0.00 0.14 0.01 71 1012.6
20260905022502 63 300 0.9 2.6 0.00 0.14 0.01 71 1012.6
20260905022002 63 317 0.9 5.2 0.00 0.14 0.01 71 1012.6
20260905021502 63 326 1.7 5.2 0.00 0.14 0.01 70 1012.6
20260905021002 64 320 1.7 5.2 0.00 0.14 0.01 70 1012.6
20260905020502 64 316 0.9 3.5 0.00 0.14 0.01 69 1012.6
20260905020002 64 313 0.9 4.3 0.00 0.14 0.01 69 1012.6
20260905015502 65 285 1.7 4.3 0.00 0.14 0.01 68 1012.6
20260905015023 65 254 1.7 5.2 0.00 0.14 0.01 68 1012.6
20260905014523 65 289 1.7 7.8 0.00 0.14 0.01 66 1012.6
20260905014002 66 318 1.7 7.8 0.00 0.14 0.01 65 1012.6
20260905013502 66 300 1.7 9.6 0.00 0.14 0.01 64 1012.6
20260905013023 67 287 1.7 9.6 0.00 0.14 0.01 63 1012.6
20260905012502 67 296 1.7 6.1 0.00 0.14 0.01 64 1012.6
20260905012023 68 311 1.7 4.3 0.00 0.14 0.01 63 1012.6
20260905011502 68 314 2.6 7.0 0.00 0.14 0.01 63 1012.6
20260905011002 68 309 1.7 7.0 0.00 0.14 0.01 62 1012.6
20260905010502 68 294 1.7 5.2 0.00 0.14 0.01 60 1012.6
20260905010002 69 273 0.9 4.3 0.00 0.14 0.01 60 1012.6
20260905005502 69 309 1.7 9.6 0.00 0.14 0.01 60 1012.6
20260905005002 69 327 1.7 9.6 0.00 0.14 0.01 59 1012.6
20260905004502 69 321 1.7 6.1 0.00 0.14 0.01 59 1012.6
20260905004002 70 300 1.7 6.1 0.00 0.14 0.01 59 1012.6
20260905003502 70 295 1.7 5.2 0.00 0.14 0.01 59 1012.6
20260905003002 70 289 1.7 6.1 0.00 0.14 0.01 58 1012.6
20260905002502 70 261 1.7 6.1 0.00 0.14 0.01 58 1012.6
20260905002002 70 265 1.7 6.1 0.00 0.14 0.01 57 1012.6
20260905001502 70 306 1.7 6.1 0.00 0.14 0.01 56 1012.6
20260905001002 70 320 1.7 5.2 0.00 0.14 0.01 58 1012.6